Flag for U.S.A. Weather past 2 weeks in Bryan – College Station, Texas, U.S.A.

Now
47 °F

Mostly cloudy.


Feels Like: 40 °F
Forecast: 41 / 64 °F
Wind: 20 mph from North

Location: Easterwood Field

Current Time: Dec 27, 2014 at 2:17:40 PM

Latest Report: Dec 27, 2014 at 1:53 PM


Visibility: 10 mi

Pressure: 30.09 "Hg

Humidity: 86%

Dew point: 43 °F

Location of Bryan – College StationLocation

Historic Weather in Bryan – College Station — Graph

°F

Bryan – College Station temperature yesterday

Maximum temperature yesterday: 67 °F (at 4:53 PM)
Minimum temperature yesterday: 57 °F (at 12:53 AM)
Average temperature yesterday: 62 °F

Past Weeks' High & Low Weather Summary

 TemperatureHumidityPressure
High75 °F (Dec 14, 12:53 PM)100% (Dec 13, 4:53 AM)30.35 "Hg (Dec 13, 4:53 AM)
Low34 °F (Dec 25, 4:53 AM)20% (Dec 15, 3:53 PM)29.59 "Hg (Dec 22, 3:53 PM)
Average56 °F77%30.04 "Hg
* Reported Dec 12 1:53 PM — Dec 27 1:02 PM, Bryan – College Station, Weather by CustomWeather, © 2014

Note: Actual official high and low records may vary slightly from our data, if they occured in-between our weather recording intervals... More about our weather records

Advertising

Bryan – College Station weather history for previous 24 hours

 ConditionsComfort  
Time TempWeatherWind HumidityBarometerVisibility
1:02 PM
Dec 27
48 °FMostly cloudy.16 mph86%30.08 "Hg10 mi
12:53 PM47 °FMostly cloudy.20 mph90%30.07 "Hg10 mi
11:53 AM47 °FLow clouds.15 mph93%30.10 "Hg10 mi
10:53 AM48 °FLight rain. Low clouds.18 mph89%30.09 "Hg10 mi
9:53 AM49 °FLight rain. Fog.16 mph97%30.09 "Hg6 mi
8:53 AM52 °FThunderstorms. Fog.17 mph97%30.04 "Hg5 mi
8:00 AM66 °FLight rain. Fog.No wind100%30.03 "Hg2 mi
6:53 AM67 °FLight rain. Fog.No wind97%29.99 "Hg5 mi
5:53 AM66 °FFog.3 mph96%29.96 "Hg6 mi
5:04 AM66 °FFog.7 mph96%29.95 "Hg6 mi
4:00 AM66 °FFog.8 mph96%29.96 "Hg6 mi
2:53 AM66 °FFog.7 mph96%29.95 "Hg6 mi
1:53 AM66 °FLow clouds.6 mph93%29.96 "Hg7 mi
12:53 AM66 °FMostly cloudy.6 mph93%29.96 "Hg8 mi
11:53 PM
Dec 26
65 °FMostly cloudy.6 mph97%29.97 "Hg10 mi
10:53 PM66 °FOvercast.6 mph93%29.97 "Hg10 mi
9:53 PM66 °FOvercast.8 mph93%29.97 "Hg10 mi
8:53 PM65 °FMostly cloudy.8 mph94%29.96 "Hg10 mi
7:53 PM65 °FOvercast.7 mph97%29.95 "Hg10 mi
7:02 PM66 °FMostly cloudy.9 mph93%29.95 "Hg10 mi
5:53 PM66 °FMostly cloudy.9 mph93%29.91 "Hg10 mi
4:53 PM67 °FMore clouds than sun.9 mph93%29.90 "Hg10 mi
3:53 PM66 °FMostly cloudy.9 mph93%29.90 "Hg10 mi
2:53 PM65 °FLow clouds.8 mph97%29.91 "Hg10 mi
Weather by CustomWeather, © 2014

See weather overviewHow to use our weather pages